Zanesville, OH

5:20 AM EST on January 16, 2018 (GMT -0500)
Zanesville Municipal

Weather History for KZZV - April, 2014

Change the Weather History Date:

Friday, April 4, 2014

  Actual Average Record
Temperature  
Mean Temperature 55 °F 48 °F  
Max Temperature 68 °F 59 °F 83 °F (1986)
Min Temperature 41 °F 36 °F 19 °F (1964)
Degree Days  
Heating Degree Days 10 18  
Month to date heating degree days 48 73  
Since 1 July heating degree days 5506 5017  
Cooling Degree Days 0 0  
Month to date cooling degree days 0 0  
Year to date cooling degree days 0 1  
Growing Degree Days 4 (Base 50)    
Moisture  
Dew Point 50 °F    
Average Humidity 80    
Maximum Humidity 100    
Minimum Humidity 60    
Precipitation  
Precipitation 0.40 in 0.11 in 1.62 in (1981)
Month to date precipitation 1.46 0.46  
Year to date precipitation 5.86 8.29  
Sea Level Pressure  
Sea Level Pressure 29.70 in    
Wind  
Wind Speed 13 mph (SSW)    
Max Wind Speed 32 mph    
Max Gust Speed 44 mph    
Visibility 5 miles    
Events Fog , Rain    
T = Trace of Precipitation, MM = Missing Value Source: NWS Daily Summary

Daily Weather History Graph

Daily Weather History Graph

Search for Another Location

Airport or City:

Trip Planner

Search our weather history database for the weather conditions in past years. The results will help you decide how hot, cold, wet, or windy it might be!

Date:

Astronomy

Apr. 04, 2014 Rise Set
Actual Time 7:06 AM EDT 7:54 PM EDT
Civil Twilight 6:39 AM EDT 8:22 PM EDT
Nautical Twilight 6:06 AM EDT 8:54 PM EDT
Astronomical Twilight 5:33 AM EDT 9:28 PM EDT
Moon 10:22 AM EDT (4/4) 12:12 AM EDT (4/4)
Length of Visible Light 13h 42m
Length of Day
12h 48m
Waxing Crescent, 25% of the Moon is Illuminated
Apr 4
Waxing Crescent
Apr 7
First Quarter
Apr 15
Full
Apr 22
Last Quarter
Apr 29
New

Hourly Weather History & Observations

Time (EDT) Temp. Windchill Dew Point Humidity Pressure Visibility Wind Dir Wind Speed Gust Speed Precip Events Conditions
12:51 AM 48.2 °F - 48.2 °F 100% 29.77 in 0.5 mi SW 4.6 mph - N/A Fog Fog
12:53 AM 50.0 °F - 48.0 °F 93% 29.77 in 0.5 mi SW 3.5 mph - N/A Fog Fog
12:58 AM 51.1 °F - 48.9 °F 92% 29.77 in 1.8 mi SSW 4.6 mph - N/A   Mostly Cloudy
1:01 AM 52.0 °F - 50.0 °F 93% 29.77 in 3.0 mi SSW 4.6 mph - N/A   Mostly Cloudy
1:18 AM 52.0 °F - 50.0 °F 93% 29.77 in 2.5 mi SSW 5.8 mph - N/A   Mostly Cloudy
1:26 AM 53.1 °F - 51.1 °F 93% 29.78 in 4.0 mi South 6.9 mph - N/A   Mostly Cloudy
1:53 AM 55.0 °F - 54.0 °F 96% 29.77 in 9.0 mi South 6.9 mph - N/A   Overcast
2:15 AM 53.1 °F - 51.1 °F 93% 29.76 in 4.0 mi South 6.9 mph - N/A   Scattered Clouds
2:53 AM 55.0 °F - 53.1 °F 93% 29.76 in 7.0 mi South 8.1 mph - N/A   Scattered Clouds
3:53 AM 54.0 °F - 53.1 °F 97% 29.73 in 3.0 mi SW 3.5 mph - N/A   Clear
3:59 AM 54.0 °F - 53.1 °F 97% 29.73 in 1.8 mi Calm Calm - N/A   Clear
4:04 AM 54.0 °F - 53.1 °F 97% 29.72 in 1.0 mi Calm Calm - N/A   Partly Cloudy
4:11 AM 52.0 °F - 52.0 °F 100% 29.72 in 0.2 mi Calm Calm - N/A Fog Fog
4:19 AM 53.1 °F - 51.1 °F 93% 29.72 in 0.2 mi Calm Calm - N/A Fog Fog
4:48 AM 53.6 °F - 51.8 °F 94% 29.73 in 0.8 mi SSW 5.8 mph - N/A   Overcast
4:53 AM 54.0 °F - 53.1 °F 97% 29.72 in 0.8 mi South 4.6 mph - N/A   Overcast
5:04 AM 54.0 °F - 53.1 °F 97% 29.72 in 1.5 mi SW 3.5 mph - N/A   Overcast
5:16 AM 53.1 °F - 52.0 °F 96% 29.73 in 1.2 mi WSW 4.6 mph - N/A   Overcast
5:27 AM 54.0 °F - 53.1 °F 97% 29.72 in 0.5 mi Calm Calm - N/A Fog Fog
5:53 AM 53.1 °F - 52.0 °F 96% 29.73 in 0.5 mi SSE 4.6 mph - 0.02 in Fog , Rain Light Rain
6:53 AM 54.0 °F - 53.1 °F 97% 29.69 in 0.8 mi SE 6.9 mph - 0.16 in Rain Light Rain
7:00 AM 55.0 °F - 54.0 °F 96% 29.67 in 1.0 mi ESE 8.1 mph - 0.02 in Rain Light Rain
7:08 AM 54.0 °F - 53.1 °F 97% 29.67 in 0.8 mi SE 6.9 mph - 0.02 in Rain Light Rain
7:13 AM 55.0 °F - 54.0 °F 96% 29.67 in 1.5 mi SE 6.9 mph - 0.02 in Rain Light Rain
7:24 AM 55.0 °F - 54.0 °F 96% 29.66 in 1.2 mi SE 8.1 mph - 0.03 in Rain Light Rain
7:29 AM 55.0 °F - 54.0 °F 96% 29.67 in 2.0 mi SSE 8.1 mph - 0.03 in Rain Light Rain
7:37 AM 55.0 °F - 54.0 °F 96% 29.67 in 4.0 mi South 8.1 mph - 0.05 in Rain Rain
7:45 AM 55.9 °F - 54.0 °F 93% 29.68 in 6.0 mi South 6.9 mph - 0.05 in Rain Light Rain
7:53 AM 55.9 °F - 55.0 °F 97% 29.67 in 4.0 mi SSE 6.9 mph - 0.06 in Rain Light Rain
8:08 AM 55.9 °F - 55.0 °F 97% 29.67 in 7.0 mi SSE 9.2 mph - 0.01 in Rain Light Rain
8:53 AM 57.0 °F - 55.9 °F 96% 29.63 in 9.0 mi SE 4.6 mph - 0.04 in Rain Light Rain
9:53 AM 57.9 °F - 55.9 °F 93% 29.61 in 6.0 mi SW 3.5 mph - 0.01 in Rain Light Rain
10:53 AM 59.0 °F - 57.0 °F 93% 29.59 in 10.0 mi South 11.5 mph - 0.01 in   Overcast
11:09 AM 60.1 °F - 57.0 °F 90% 29.60 in 10.0 mi SSW 10.4 mph - 0.00 in Rain Light Rain
11:44 AM 60.1 °F - 57.9 °F 93% 29.60 in 6.0 mi SSW 11.5 mph - 0.02 in Rain Light Rain
11:53 AM 60.1 °F - 57.9 °F 93% 29.60 in 6.0 mi SSW 9.2 mph - 0.02 in Rain Light Rain
12:53 PM 62.1 °F - 57.9 °F 86% 29.55 in 10.0 mi SSW 15.0 mph - 0.03 in   Mostly Cloudy
1:25 PM 63.0 °F - 57.9 °F 84% 29.55 in 10.0 mi South 12.7 mph - N/A   Overcast
1:53 PM 66.9 °F - 57.0 °F 70% 29.55 in 10.0 mi SW 15.0 mph 23.0 mph N/A   Clear
2:53 PM 66.0 °F - 53.1 °F 63% 29.55 in 10.0 mi SW 18.4 mph 27.6 mph N/A   Overcast
3:53 PM 64.9 °F - 53.1 °F 65% 29.56 in 10.0 mi SW 20.7 mph 28.8 mph 0.00 in Rain Light Rain
4:53 PM 66.0 °F - 53.1 °F 63% 29.55 in 10.0 mi SW 18.4 mph 26.5 mph 0.00 in   Clear
5:53 PM 60.1 °F - 50.0 °F 69% 29.61 in 10.0 mi West 24.2 mph 34.5 mph 0.04 in   Overcast
6:53 PM 52.0 °F - 44.1 °F 74% 29.69 in 10.0 mi West 25.3 mph 36.8 mph 0.01 in   Overcast
7:38 PM 50.0 °F - 39.9 °F 68% 29.73 in 10.0 mi West 17.3 mph 31.1 mph N/A   Overcast
7:53 PM 48.9 °F - 39.0 °F 69% 29.75 in 10.0 mi West 17.3 mph 28.8 mph N/A   Mostly Cloudy
8:53 PM 46.0 °F 37.8 °F 34.0 °F 63% 29.80 in 10.0 mi West 23.0 mph 36.8 mph N/A   Overcast
9:53 PM 44.1 °F 35.9 °F 33.1 °F 65% 29.84 in 10.0 mi West 19.6 mph 27.6 mph N/A   Overcast
10:39 PM 43.0 °F 34.5 °F 32.0 °F 65% 29.87 in 10.0 mi West 19.6 mph 27.6 mph N/A   Overcast
10:53 PM 43.0 °F 35.4 °F 32.0 °F 65% 29.88 in 10.0 mi West 16.1 mph 25.3 mph N/A   Overcast
11:40 PM 41.0 °F 32.8 °F 30.0 °F 65% 29.89 in 10.0 mi West 16.1 mph 27.6 mph N/A   Overcast
11:53 PM 41.0 °F 32.8 °F 28.9 °F 62% 29.90 in 10.0 mi West 16.1 mph 25.3 mph N/A   Overcast